Location: Olbia
(40.9170°N, 9.5170°E)
Time: 12:29:46
(UTC+02:00)

ISS - Visible Passes

Search period start: 11 May 2021 00:00
Search period end: 21 May 2021 00:00
Orbit: 418 x 421 km, 51.6° (Epoch: 11 May)

Date Brightness Start Highest point End Pass type
(mag) Time Alt. Az. Time Alt. Az. Time Alt. Az.
11 May -0.5 02:04:21 15° NNE 02:04:21 15° NNE 02:05:28 10° NNE visible
11 May -0.6 03:39:07 10° NNW 03:40:59 14° N 03:42:52 10° NE visible
11 May -1.7 05:15:32 10° NW 05:18:36 31° NNE 05:21:39 10° E visible
12 May -0.6 02:51:32 10° NNW 02:53:17 13° N 02:55:02 10° NNE visible
12 May -1.2 04:28:14 10° NW 04:31:02 23° NNE 04:33:48 10° ENE visible
13 May -0.6 02:05:02 13° NNW 02:05:34 14° N 02:07:22 10° NNE visible
13 May -0.8 03:40:56 10° NNW 03:43:24 18° NNE 03:45:51 10° ENE visible
13 May -3.5 05:17:17 10° NW 05:20:40 75° NE 05:24:02 10° ESE visible
14 May -0.5 01:18:38 14° N 01:18:38 14° N 01:19:53 10° NNE visible
14 May -0.6 02:53:36 10° NNW 02:55:45 16° NNE 02:57:52 10° NE visible
14 May -2.6 04:29:55 10° NW 04:33:12 46° NNE 04:36:27 10° ESE visible
14 May -2.1 21:14:15 10° S 21:16:22 16° SE 21:18:29 10° E visible
14 May -3.2 22:49:32 10° WSW 22:52:51 59° NNW 22:55:38 14° NE visible
15 May -0.8 00:27:54 10° WNW 00:30:12 17° NNW 00:32:30 10° NNE visible
15 May -0.5 02:06:10 10° NNW 02:08:02 14° N 02:09:55 10° NE visible
15 May -1.8 03:42:35 10° NW 03:45:39 31° NNE 03:48:43 10° E visible
15 May -3.2 05:19:22 10° WNW 05:22:30 36° SW 05:25:37 10° SSE visible
15 May -3.9 22:02:03 10° SW 22:05:24 82° SE 22:08:46 10° NE visible
15 May -1.1 23:39:56 10° WNW 23:42:33 21° NNW 23:45:11 10° NNE visible
16 May -0.4 01:18:36 10° NNW 01:20:20 13° N 01:22:05 10° NNE visible
16 May -1.3 02:55:17 10° NW 02:58:05 23° NNE 03:00:52 10° ENE visible
16 May -3.8 04:31:47 10° WNW 04:35:08 63° SW 04:38:28 10° SE visible
16 May -3.5 21:14:47 10° SSW 21:18:01 46° SE 21:21:16 10° ENE visible
16 May -1.5 22:52:01 10° W 22:54:57 27° NNW 22:57:53 10° NE visible
17 May -0.4 00:30:50 10° NW 00:32:38 14° N 00:34:25 10° NNE visible
17 May -0.9 02:07:59 10° NNW 02:10:27 18° NNE 02:12:54 10° ENE visible
17 May -3.7 03:44:19 10° NW 03:47:43 76° NE 03:51:04 10° ESE visible
17 May -1.8 05:22:37 10° WSW 05:24:05 12° SW 05:25:34 10° SSW visible
17 May -2.2 22:04:14 10° W 22:07:24 38° NNW 22:10:34 10° NE visible
17 May -0.5 23:42:56 10° NW 23:44:55 15° N 23:46:55 10° NNE visible
18 May -0.7 01:20:38 10° NNW 01:22:47 16° NNE 01:22:56 16° NNE visible
18 May -3.1 21:16:34 10° WSW 21:19:53 59° NNW 21:23:13 10° NE visible
18 May -0.7 22:54:56 10° WNW 22:57:14 17° NNW 22:59:32 10° NNE visible
19 May -0.6 00:33:12 10° NNW 00:35:05 14° N 00:36:31 11° NNE visible
19 May -1.0 22:06:58 10° WNW 22:09:35 20° NNW 22:12:12 10° NNE visible
19 May -0.6 23:45:38 10° NNW 23:47:22 13° N 23:49:06 10° NNE visible
20 May -0.7 01:22:19 10° NW 01:23:17 15° NNW 01:23:17 15° NNW visible
20 May -1.4 21:19:03 10° W 21:21:58 27° NNW 21:24:54 10° NE visible
20 May -0.6 22:57:52 10° NW 22:59:39 14° N 23:01:26 10° NNE visible
